This is the latest recevied weather packets stored in our database for station/object PA0HHN. If no packets are shown the sender has not sent any weather packets the latest 10 day(s).
| Time | Temp. | Humidity | Pressure | Rain* | Wind** | Luminosity | Snow |
|---|---|---|---|---|---|---|---|
| 1777806003 | 22.78° C | 71% | 1004 hPa | - | - | - | - |
| 1777805101 | 22.22° C | 73% | 1003.8 hPa | - | - | - | - |
| 1777804202 | 22.22° C | 72% | 1004.3 hPa | - | - | - | - |
| 1777803302 | 22.22° C | 72% | 1004.3 hPa | - | - | - | - |
| 1777802401 | 22.22° C | 72% | 1004.2 hPa | - | - | - | - |
| 1777801500 | 21.11° C | 73% | 1004.5 hPa | - | - | - | - |
| 1777800600 | 21.11° C | 74% | 1004.6 hPa | - | - | - | - |
| 1777799700 | 21.11° C | 69% | 1004.5 hPa | - | - | - | - |
| 1777798801 | 21.11° C | 70% | 1004.7 hPa | - | - | - | - |
| 1777797902 | 21.11° C | 75% | 1004.6 hPa | - | - | - | - |
| 1777797002 | 20° C | 74% | 1004.8 hPa | - | - | - | - |
| 1777796101 | 20° C | 74% | 1004.9 hPa | - | - | - | - |
| 1777795202 | 20° C | 77% | 1005.1 hPa | - | - | - | - |
| 1777794302 | 18.89° C | 77% | 1005.1 hPa | - | - | - | - |
| 1777793402 | 18.89° C | 81% | 1005.2 hPa | - | - | - | - |
| 1777792501 | 17.78° C | 85% | 1005.1 hPa | - | - | - | - |
| 1777791601 | 17.78° C | 86% | 1005.3 hPa | - | - | - | - |
| 1777790702 | 17.78° C | 87% | 1005.6 hPa | - | - | - | - |
| 1777789802 | 16.11° C | 90% | 1005.2 hPa | - | - | - | - |
| 1777788902 | 17.22° C | 93% | 1005.5 hPa | - | - | - | - |
| 1777787100 | 15° C | 98% | 1005.5 hPa | - | - | - | - |
| 1777783503 | 15° C | 96% | 1005.4 hPa | - | - | - | - |
| 1777782602 | 15° C | 96% | 1005.6 hPa | - | - | - | - |
| 1777781701 | 15° C | 96% | 1005.5 hPa | - | - | - | - |
| 1777780802 | 15° C | 96% | 1005.7 hPa | - | - | - | - |
* Rain since midnight (hover to see other rain measurements)
** Current wind speed in m/s (hover to see current wind gust speed)